Wind_Speed
83 86 87 83 81 80 81 83 86 90 92 95 97 99 102 106 108 111 113 115 117 118 120 121 120 118 116
84 88 82 80 80 81 85 89 93 97 100 102 104 106 110 113 115 117 118 117 116 115 116 117 117 115 114
85 81 79 82 82 86 89 95 100 105 108 108 111 114 116 115 113 114 114 114 115 115 113 111 108 106 104
81 80 83 87 91 94 97 103 108 113 114 110 110 111 114 113 114 115 115 111 108 104 101 99 98 95 93
85 89 93 96 100 104 107 107 108 109 110 113 112 115 117 115 113 107 102 96 93 92 91 91 90 86 82
94 97 101 105 107 106 103 106 108 115 117 117 114 113 108 105 102 97 91 85 82 80 80 83 83 78 72
101 105 104 102 103 107 109 110 114 115 109 108 101 100 98 97 95 89 81 73 70 71 75 77 74 71 68
105 103 105 108 108 111 112 111 109 106 99 93 93 90 90 89 87 81 71 61 55 63 70 68 61 60 59
105 108 110 113 113 111 108 102 97 98 94 80 82 78 78 82 81 75 62 54 56 65 65 57 54 52 52
112 115 117 116 109 102 97 93 88 83 83 74 76 72 68 78 75 72 64 55 57 63 58 54 54 52 52
117 116 111 104 99 97 90 82 76 73 70 64 71 71 69 67 68 63 57 55 53 51 51 50 49 48 48
108 104 100 96 91 86 79 75 69 65 69 64 61 58 57 55 52 49 49 47 44 42 42 42 43 42 41
99 95 90 85 79 76 73 70 69 64 59 53 50 48 45 42 38 39 36 39 35 35 34 33 33 32 32
88 84 78 72 69 65 66 65 61 57 53 48 43 38 35 33 31 32 31 30 28 26 24 22 23 23 24
75 70 66 64 59 60 57 54 50 49 45 39 36 33 31 29 27 26 26 25 23 21 20 20 19 19 19
63 61 57 55 57 52 48 46 44 40 36 34 31 28 26 24 23 21 20 19 19 20 20 19 18 18 19
55 51 50 52 48 45 41 38 35 33 31 30 28 27 24 22 21 20 18 16 15 14 15 17 17 18 18
Wind_Direction
294 295 296 291 287 286 286 286 286 285 284 283 284 284 283 283 282 282 281 281 281 280 279 278 277 275 274
294 295 291 288 287 288 289 288 287 286 285 285 285 285 285 284 284 283 282 281 280 279 278 277 277 276 275
293 291 289 289 290 289 288 287 288 287 287 289 289 288 286 285 285 284 284 283 282 281 280 279 277 275 274
293 292 291 291 291 290 291 291 291 292 291 290 289 288 288 288 286 284 284 284 284 282 281 279 277 276 274
295 294 294 294 293 294 294 294 293 292 293 292 292 291 290 289 287 286 285 285 284 282 281 279 277 274 272
294 294 294 296 296 296 297 296 296 295 296 295 293 292 291 290 288 287 286 286 284 281 278 275 274 274 272
294 296 297 298 298 298 298 298 298 297 295 295 294 294 292 290 289 288 288 287 284 280 275 272 273 273 272
300 301 300 299 300 300 301 301 300 298 297 298 297 295 293 292 290 290 290 290 286 279 274 274 274 272 270
300 301 301 301 303 303 303 301 300 301 298 301 297 295 294 292 292 293 295 292 284 275 275 278 276 272 269
303 303 304 305 305 304 303 304 303 302 302 303 298 295 293 291 293 295 295 292 279 279 282 278 273 268 265
303 305 304 305 305 305 306 307 306 305 302 300 296 297 297 294 294 296 297 290 287 286 282 278 273 267 261
305 305 306 306 308 308 308 309 309 309 307 306 301 298 296 295 297 298 296 295 292 288 283 278 273 269 263
306 306 306 308 309 310 312 313 313 312 311 310 307 305 303 303 303 299 302 298 298 291 288 282 276 271 266
305 306 308 310 311 312 314 315 316 318 319 317 315 314 312 312 310 307 304 302 300 296 291 284 275 269 264
306 307 309 311 313 315 316 317 319 321 322 322 321 320 319 317 313 309 304 301 298 295 293 289 283 275 268
308 309 312 313 315 318 320 324 325 326 327 327 327 325 323 319 316 315 313 312 308 305 301 292 285 277 270
310 312 314 316 319 323 325 326 329 333 336 337 338 335 334 332 330 328 323 317 309 300 293 289 285 280 271
Height
10462 10450 10442 10431 10423 10418 10413 10408 10401 10393 10388 10383 10379 10374 10367 10358 10352 10345 10337 10331 10324 10318 10311 10302 10297 10293 10291
10443 10432 10423 10412 10406 10401 10392 10383 10374 10365 10358 10354 10348 10341 10332 10322 10316 10306 10297 10290 10284 10276 10268 10262 10254 10250 10248
10424 10413 10404 10393 10390 10381 10373 10360 10348 10334 10326 10324 10314 10303 10290 10281 10273 10261 10253 10248 10243 10235 10228 10220 10213 10208 10206
10400 10393 10383 10373 10364 10356 10347 10331 10320 10300 10292 10289 10274 10261 10248 10243 10232 10221 10214 10211 10203 10192 10183 10177 10172 10171 10169
10376 10366 10356 10347 10335 10326 10316 10305 10287 10265 10256 10247 10236 10221 10206 10197 10188 10181 10176 10173 10166 10157 10146 10139 10134 10134 10138
10352 10342 10331 10320 10308 10294 10283 10269 10260 10229 10219 10209 10196 10181 10167 10153 10144 10141 10143 10140 10133 10123 10114 10105 10101 10104 10110
10326 10314 10306 10289 10278 10266 10248 10235 10220 10200 10188 10174 10160 10143 10131 10117 10107 10107 10110 10110 10104 10094 10082 10076 10078 10078 10081
10295 10284 10271 10257 10243 10231 10215 10201 10181 10161 10147 10146 10126 10114 10097 10084 10073 10076 10082 10082 10078 10063 10054 10053 10058 10059 10059
10269 10255 10240 10224 10211 10198 10180 10165 10150 10131 10109 10119 10096 10087 10074 10057 10048 10046 10054 10057 10050 10035 10032 10038 10039 10040 10040
10236 10219 10204 10189 10174 10161 10149 10136 10123 10110 10088 10088 10067 10059 10057 10034 10032 10026 10026 10030 10020 10013 10016 10019 10018 10020 10022
10212 10195 10176 10160 10147 10132 10119 10110 10099 10087 10072 10066 10047 10038 10033 10023 10009 10005 10004 9999 9998 9999 9998 9998 9999 10000 10002
10185 10168 10152 10135 10122 10108 10098 10085 10076 10067 10049 10041 10030 10021 10011 10004 9998 9994 9987 9984 9982 9982 9981 9981 9982 9983 9986
10158 10142 10129 10117 10105 10089 10076 10064 10055 10046 10034 10022 10011 10003 9996 9991 9986 9978 9976 9970 9970 9967 9967 9968 9968 9970 9972
10135 10122 10110 10099 10089 10077 10064 10052 10039 10028 10019 10008 9998 9991 9984 9979 9974 9969 9966 9962 9960 9958 9958 9957 9957 9959 9961
10120 10107 10096 10085 10076 10066 10055 10043 10032 10018 10009 10000 9990 9983 9976 9971 9967 9963 9959 9956 9953 9951 9950 9949 9949 9951 9952
10104 10094 10084 10075 10065 10055 10045 10033 10023 10013 10003 9994 9985 9978 9972 9967 9962 9958 9955 9952 9949 9947 9945 9945 9944 9945 9945
10091 10083 10075 10066 10055 10045 10036 10028 10019 10009 10000 9992 9984 9976 9971 9966 9960 9956 9952 9950 9947 9945 9943 9941 9941 9940 9940